Location: Castelnau
(43.6639°N, 0.8431°W)
Time: 17:23:41
(UTC+00:00)

Cosmos 1862 Rocket - Pass Details

Date: 13 January 2026
Orbit: 596 x 627 km, 82.5° (Epoch: 10 February)

Event Time Altitude Azimuth Distance (km) Brightness Sun altitude
Rises 06:22:39 0° 355° (N) 2,884 6.8 -12.8°
Reaches altitude 10° 06:24:56 10° 0° (N) 1,970 6.0 -12.4°
Maximum altitude 06:29:13 55° 79° (E) 731 4.3 -11.7°
Drops below altitude 10° 06:33:25 10° 157° (SSE) 1,937 6.7 -10.9°
Sets 06:35:38 0° 162° (SSE) 2,832 7.5 -10.6°
